Home > Weather > Topeka > Past weeks

Flag for U.S.A. Weather for the Past 2 Weeks in Topeka, Kansas, U.S.A.

Now
34 °F

Mostly cloudy.


Feels Like: 26 °F
Forecast: 19 / 38 °F
Wind: 10 mph from North

Location: Philip Billard Municipal Airport

Current Time: Feb 12, 2016 at 11:29:22 AM

Latest Report: Feb 12, 2016 at 10:53 AM


Visibility: 10 mi

Pressure: 30.48 "Hg

Humidity: 61%

Dew point: 22 °F

Location of TopekaLocation

Historic Weather in Topeka — Graph

°F

Topeka Temperature Yesterday

Maximum temperature yesterday: 40 °F (at 4:53 PM)
Minimum temperature yesterday: 22 °F (at 6:53 AM)
Average temperature yesterday: 31 °F

High & Low Weather Summary for the Past Weeks

 TemperatureHumidityPressure
High67 °F (Jan 29, 2:53 PM)93% (Feb 2, 6:53 AM)30.46 "Hg (Feb 2, 6:53 AM)
Low19 °F (Feb 4, 2:53 AM)18% (Feb 7, 3:53 PM)29.34 "Hg (Feb 2, 1:53 PM)
Average37 °F61%30.03 "Hg
* Reported Jan 28 9:53 AM — Feb 12 9:53 AM, Topeka, Weather by CustomWeather, © 2016

Note: Actual official high and low records may vary slightly from our data, if they occured in-between our weather recording intervals... More about our weather records

Advertising

Topeka Weather History for the Previous 24 Hours

 ConditionsComfort  
Time TempWeatherWind HumidityBarometerVisibility
9:53 AM
Fri, Feb 12
33 °FOvercast.13 mph70%30.46 "Hg10 mi
8:53 AM32 °FOvercast.18 mph73%30.43 "Hg9 mi
7:53 AM31 °FOvercast.12 mph76%30.39 "Hg10 mi
6:53 AM30 °FOvercast.7 mph75%30.35 "Hg10 mi
5:53 AM28 °FPassing clouds.6 mph78%30.33 "Hg10 mi
4:53 AM28 °FOvercast.3 mph81%30.28 "Hg10 mi
3:53 AM28 °FPassing clouds.5 mph75%30.25 "Hg10 mi
2:53 AM29 °FClear.3 mph72%30.23 "Hg10 mi
1:53 AM27 °FClear.No wind78%30.22 "Hg10 mi
12:53 AM29 °FClear.No wind75%30.21 "Hg10 mi
11:53 PM
Thu, Feb 11
29 °FClear.3 mph72%30.20 "Hg10 mi
10:53 PM34 °FClear.3 mph61%30.19 "Hg10 mi
9:53 PM35 °FPassing clouds.5 mph59%30.19 "Hg10 mi
8:53 PM36 °FPassing clouds.3 mph62%30.20 "Hg10 mi
7:53 PM35 °FPartly cloudy.No wind67%30.23 "Hg10 mi
6:53 PM39 °FClear.3 mph50%30.22 "Hg10 mi
5:53 PM38 °FSunny.7 mph53%30.19 "Hg10 mi
4:53 PM40 °FSunny.6 mph47%30.21 "Hg10 mi
2:53 PM39 °FSunny.7 mph48%30.21 "Hg10 mi
1:53 PM37 °FSunny.6 mph52%30.26 "Hg10 mi
12:53 PM37 °FSunny.6 mph50%30.28 "Hg10 mi
11:53 AM35 °FSunny.6 mph56%30.32 "Hg10 mi
Weather by CustomWeather, © 2016

See weather overviewHow to use our weather pages